Time,TemperatureF,DewpointF,PressureIn,WindDirection,WindDirectionDegrees,WindSpeedMPH,WindSpeedGustMPH,Humidity,HourlyPrecipIn,Conditions,Clouds,dailyrainin,SoftwareType,DateUTC
2013-06-05 00:02:00,63.0,58.0,-100.00,NNE,25,0.0,1.0,86,-99.99,,,-99.99,,2013-06-05 05:02:00,
2013-06-05 00:12:00,62.0,57.0,-100.00,NNE,15,0.0,0.0,82,-99.99,,,-99.99,,2013-06-05 05:12:00,
2013-06-05 00:22:00,62.0,57.0,-100.00,NNE,15,0.0,0.0,82,-99.99,,,-99.99,,2013-06-05 05:22:00,
2013-06-05 00:32:00,63.0,56.0,-100.00,NNE,15,0.0,1.0,78,-99.99,,,-99.99,,2013-06-05 05:32:00,
2013-06-05 00:42:00,63.0,57.0,-100.00,ENE,70,0.0,0.0,79,-99.99,,,-99.99,,2013-06-05 05:42:00,
2013-06-05 00:52:00,63.0,57.0,-100.00,ENE,70,0.0,0.0,79,-99.99,,,-99.99,,2013-06-05 05:52:00,
2013-06-05 01:02:00,63.0,58.0,-100.00,NE,40,0.0,2.0,82,-99.99,,,-99.99,,2013-06-05 06:02:00,
2013-06-05 01:12:00,63.0,57.0,-100.00,North,350,0.0,2.0,78,-99.99,,,-99.99,,2013-06-05 06:12:00,
2013-06-05 01:22:00,63.0,57.0,-100.00,North,350,0.0,2.0,78,-99.99,,,-99.99,,2013-06-05 06:22:00,
2013-06-05 01:32:00,62.0,56.0,-100.00,NNE,15,1.0,1.0,79,-99.99,,,-99.99,,2013-06-05 06:32:00,
2013-06-05 01:42:00,62.0,57.0,-100.00,NE,35,0.0,1.0,82,-99.99,,,-99.99,,2013-06-05 06:42:00,
2013-06-05 01:52:00,62.0,57.0,-100.00,NE,35,0.0,1.0,82,-99.99,,,-99.99,,2013-06-05 06:52:00,
2013-06-05 02:02:00,62.0,57.0,-100.00,ENE,70,0.0,1.0,85,-99.99,,,-99.99,,2013-06-05 07:02:00,
2013-06-05 02:12:00,63.0,56.0,-100.00,NE,35,0.0,1.0,79,-99.99,,,-99.99,,2013-06-05 07:12:00,
2013-06-05 02:22:00,63.0,56.0,-100.00,NE,35,0.0,1.0,79,-99.99,,,-99.99,,2013-06-05 07:22:00,
2013-06-05 02:32:00,62.0,57.0,-100.00,NE,40,1.0,1.0,82,-99.99,,,-99.99,,2013-06-05 07:32:00,
2013-06-05 02:42:00,63.0,57.0,-100.00,NNE,25,0.0,1.0,81,-99.99,,,-99.99,,2013-06-05 07:42:00,
2013-06-05 02:52:00,63.0,57.0,-100.00,NNE,25,0.0,1.0,81,-99.99,,,-99.99,,2013-06-05 07:52:00,
2013-06-05 03:02:00,63.0,56.0,-100.00,East,90,0.0,1.0,77,-99.99,,,-99.99,,2013-06-05 08:02:00,
2013-06-05 03:12:00,63.0,56.0,-100.00,East,85,0.0,1.0,79,-99.99,,,-99.99,,2013-06-05 08:12:00,
2013-06-05 03:22:00,63.0,56.0,-100.00,East,85,0.0,1.0,79,-99.99,,,-99.99,,2013-06-05 08:22:00,
2013-06-05 03:32:00,63.0,56.0,-100.00,SE,125,2.0,4.0,80,-99.99,,,-99.99,,2013-06-05 08:32:00,
2013-06-05 03:42:00,62.0,57.0,-100.00,ESE,110,0.0,2.0,82,-99.99,,,-99.99,,2013-06-05 08:42:00,
2013-06-05 03:52:00,62.0,57.0,-100.00,ESE,110,0.0,2.0,82,-99.99,,,-99.99,,2013-06-05 08:52:00,
2013-06-05 04:02:00,62.0,56.0,-100.00,ESE,105,1.0,3.0,79,-99.99,,,-99.99,,2013-06-05 09:02:00,
2013-06-05 04:12:00,62.0,57.0,-100.00,North,0,0.0,1.0,83,-99.99,,,-99.99,,2013-06-05 09:12:00,
2013-06-05 04:22:00,62.0,57.0,-100.00,North,0,0.0,1.0,83,-99.99,,,-99.99,,2013-06-05 09:22:00,
2013-06-05 04:33:00,62.0,56.0,-100.00,NNE,20,0.0,3.0,82,-99.99,,,-99.99,,2013-06-05 09:33:00,
2013-06-05 04:43:00,61.0,57.0,-100.00,SSE,150,0.0,2.0,89,-99.99,,,-99.99,,2013-06-05 09:43:00,
2013-06-05 04:53:00,61.0,57.0,-100.00,SSE,150,0.0,2.0,89,-99.99,,,-99.99,,2013-06-05 09:53:00,
2013-06-05 05:03:00,60.0,58.0,-100.00,NE,45,0.0,1.0,94,-99.99,,,-99.99,,2013-06-05 10:03:00,
2013-06-05 05:12:00,59.0,57.0,-100.00,NE,35,1.0,6.0,94,-99.99,,,-99.99,,2013-06-05 10:12:00,
2013-06-05 05:22:00,59.0,57.0,-100.00,NE,35,1.0,6.0,94,-99.99,,,-99.99,,2013-06-05 10:22:00,
2013-06-05 05:33:00,59.0,57.0,-100.00,SW,220,0.0,2.0,94,-99.99,,,-99.99,,2013-06-05 10:33:00,
2013-06-05 05:42:00,59.0,57.0,-100.00,ENE,65,0.0,4.0,94,-99.99,,,-99.99,,2013-06-05 10:42:00,
2013-06-05 05:53:00,59.0,57.0,-100.00,ENE,65,0.0,4.0,94,-99.99,,,-99.99,,2013-06-05 10:53:00,
2013-06-05 06:02:00,59.0,57.0,-100.00,North,350,1.0,1.0,95,-99.99,,,-99.99,,2013-06-05 11:02:00,
2013-06-05 06:12:00,59.0,58.0,-100.00,NW,325,0.0,1.0,96,-99.99,,,-99.99,,2013-06-05 11:12:00,
2013-06-05 06:22:00,59.0,58.0,-100.00,NW,325,0.0,1.0,96,-99.99,,,-99.99,,2013-06-05 11:22:00,
2013-06-05 06:32:00,59.0,57.0,-100.00,NNE,20,0.0,3.0,93,-99.99,,,-99.99,,2013-06-05 11:32:00,
2013-06-05 06:42:00,59.0,57.0,-100.00,North,5,1.0,1.0,94,-99.99,,,-99.99,,2013-06-05 11:42:00,
2013-06-05 06:52:00,59.0,57.0,-100.00,North,5,1.0,1.0,94,-99.99,,,-99.99,,2013-06-05 11:52:00,
2013-06-05 07:02:00,59.0,58.0,-100.00,NNE,15,0.0,2.0,95,-99.99,,,-99.99,,2013-06-05 12:02:00,
2013-06-05 07:12:00,59.0,57.0,-100.00,NE,55,0.0,1.0,94,-99.99,,,-99.99,,2013-06-05 12:12:00,
2013-06-05 07:22:00,59.0,57.0,-100.00,NE,55,0.0,1.0,94,-99.99,,,-99.99,,2013-06-05 12:22:00,
2013-06-05 07:32:00,60.0,58.0,-100.00,NNE,30,0.0,3.0,93,-99.99,,,-99.99,,2013-06-05 12:32:00,
2013-06-05 07:44:00,60.0,58.0,-100.00,East,80,1.0,4.0,91,-99.99,,,-99.99,,2013-06-05 12:44:00,
2013-06-05 07:52:00,60.0,58.0,-100.00,East,80,1.0,4.0,91,-99.99,,,-99.99,,2013-06-05 12:52:00,
2013-06-05 08:02:00,61.0,58.0,-100.00,ESE,110,0.0,3.0,91,-99.99,,,-99.99,,2013-06-05 13:02:00,
2013-06-05 08:12:00,61.0,58.0,-100.00,NE,55,0.0,4.0,90,-99.99,,,-99.99,,2013-06-05 13:12:00,
2013-06-05 08:22:00,61.0,58.0,-100.00,NE,55,0.0,4.0,90,-99.99,,,-99.99,,2013-06-05 13:22:00,
2013-06-05 08:32:00,62.0,58.0,-100.00,East,100,1.0,2.0,88,-99.99,,,-99.99,,2013-06-05 13:32:00,
2013-06-05 08:42:00,63.0,58.0,-100.00,NW,305,1.0,2.0,85,-99.99,,,-99.99,,2013-06-05 13:42:00,
2013-06-05 08:52:00,63.0,58.0,-100.00,NW,305,1.0,2.0,85,-99.99,,,-99.99,,2013-06-05 13:52:00,
2013-06-05 09:02:00,63.0,59.0,-100.00,North,355,1.0,2.0,86,-99.99,,,-99.99,,2013-06-05 14:02:00,
2013-06-05 09:12:00,63.0,59.0,-100.00,North,5,0.0,4.0,86,-99.99,,,-99.99,,2013-06-05 14:12:00,
2013-06-05 09:22:00,63.0,59.0,-100.00,North,5,0.0,4.0,86,-99.99,,,-99.99,,2013-06-05 14:22:00,
2013-06-05 09:32:00,64.0,59.0,-100.00,ENE,75,1.0,4.0,84,-99.99,,,-99.99,,2013-06-05 14:32:00,
2013-06-05 09:42:00,64.0,59.0,-100.00,NE,45,0.0,1.0,84,-99.99,,,-99.99,,2013-06-05 14:42:00,
2013-06-05 09:52:00,64.0,59.0,-100.00,NE,45,0.0,1.0,84,-99.99,,,-99.99,,2013-06-05 14:52:00,
2013-06-05 10:02:00,63.0,60.0,-100.00,NE,40,0.0,2.0,88,-99.99,,,-99.99,,2013-06-05 15:02:00,
2013-06-05 10:12:00,63.0,60.0,-100.00,NE,40,0.0,1.0,90,-99.99,,,-99.99,,2013-06-05 15:12:00,
2013-06-05 10:22:00,63.0,60.0,-100.00,NE,40,0.0,1.0,90,-99.99,,,-99.99,,2013-06-05 15:22:00,
2013-06-05 10:33:00,64.0,61.0,-100.00,ESE,115,0.0,1.0,89,-99.99,,,-99.99,,2013-06-05 15:33:00,
2013-06-05 10:42:00,65.0,61.0,-100.00,SE,125,0.0,4.0,87,-99.99,,,-99.99,,2013-06-05 15:42:00,
2013-06-05 10:53:00,65.0,61.0,-100.00,SE,125,0.0,4.0,87,-99.99,,,-99.99,,2013-06-05 15:53:00,
2013-06-05 11:03:00,65.0,61.0,-100.00,SE,135,1.0,5.0,86,-99.99,,,-99.99,,2013-06-05 16:03:00,
2013-06-05 11:12:00,66.0,60.0,-100.00,NE,35,2.0,7.0,82,-99.99,,,-99.99,,2013-06-05 16:12:00,
2013-06-05 11:23:00,66.0,60.0,-100.00,NE,35,2.0,7.0,82,-99.99,,,-99.99,,2013-06-05 16:23:00,
2013-06-05 11:32:00,65.0,60.0,-100.00,ESE,115,4.0,9.0,83,-99.99,,,-99.99,,2013-06-05 16:32:00,
2013-06-05 11:42:00,65.0,60.0,-100.00,East,90,5.0,12.0,84,-99.99,,,-99.99,,2013-06-05 16:42:00,
2013-06-05 11:54:00,65.0,60.0,-100.00,East,90,5.0,12.0,84,-99.99,,,-99.99,,2013-06-05 16:54:00,
2013-06-05 12:02:00,65.0,60.0,-100.00,NNE,15,2.0,9.0,85,-99.99,,,-99.99,,2013-06-05 17:02:00,
2013-06-05 12:12:00,65.0,61.0,-100.00,ESE,115,5.0,11.0,87,-99.99,,,-99.99,,2013-06-05 17:12:00,
2013-06-05 12:22:00,65.0,61.0,-100.00,ESE,115,5.0,11.0,87,-99.99,,,-99.99,,2013-06-05 17:22:00,
2013-06-05 12:33:00,66.0,60.0,-100.00,East,85,0.0,9.0,82,-99.99,,,-99.99,,2013-06-05 17:33:00,
2013-06-05 12:43:00,67.0,60.0,-100.00,SE,135,0.0,1.0,80,-99.99,,,-99.99,,2013-06-05 17:43:00,
2013-06-05 12:52:00,67.0,60.0,-100.00,SE,135,0.0,1.0,80,-99.99,,,-99.99,,2013-06-05 17:52:00,
2013-06-05 13:02:00,67.0,62.0,-100.00,NNE,30,0.0,1.0,84,-99.99,,,-99.99,,2013-06-05 18:02:00,
2013-06-05 13:12:00,67.0,62.0,-100.00,NE,50,0.0,0.0,82,-99.99,,,-99.99,,2013-06-05 18:12:00,
2013-06-05 13:22:00,67.0,62.0,-100.00,NE,50,0.0,0.0,82,-99.99,,,-99.99,,2013-06-05 18:22:00,
2013-06-05 13:32:00,67.0,61.0,-100.00,East,90,0.0,2.0,81,-99.99,,,-99.99,,2013-06-05 18:32:00,
2013-06-05 13:42:00,67.0,62.0,-100.00,East,90,0.0,0.0,84,-99.99,,,-99.99,,2013-06-05 18:42:00,
2013-06-05 13:52:00,67.0,62.0,-100.00,East,90,0.0,0.0,84,-99.99,,,-99.99,,2013-06-05 18:52:00,
2013-06-05 14:02:00,65.0,62.0,-100.00,NNW,335,1.0,3.0,89,-99.99,,,-99.99,,2013-06-05 19:02:00,
2013-06-05 14:12:00,66.0,62.0,-100.00,NNW,340,1.0,3.0,87,-99.99,,,-99.99,,2013-06-05 19:12:00,
2013-06-05 14:23:00,66.0,62.0,-100.00,NNW,340,1.0,3.0,87,-99.99,,,-99.99,,2013-06-05 19:23:00,
2013-06-05 14:32:00,66.0,63.0,-100.00,North,355,0.0,4.0,91,-99.99,,,-99.99,,2013-06-05 19:32:00,
2013-06-05 14:42:00,66.0,63.0,-100.00,NNW,345,1.0,3.0,90,-99.99,,,-99.99,,2013-06-05 19:42:00,
2013-06-05 14:53:00,66.0,63.0,-100.00,NNW,345,1.0,3.0,90,-99.99,,,-99.99,,2013-06-05 19:53:00,
2013-06-05 15:02:00,67.0,63.0,-100.00,North,0,0.0,4.0,87,-99.99,,,-99.99,,2013-06-05 20:02:00,
2013-06-05 15:12:00,66.0,62.0,-100.00,NNW,340,1.0,4.0,87,-99.99,,,-99.99,,2013-06-05 20:12:00,
2013-06-05 15:22:00,66.0,62.0,-100.00,NNW,340,1.0,4.0,87,-99.99,,,-99.99,,2013-06-05 20:22:00,
2013-06-05 15:32:00,66.0,62.0,-100.00,North,0,2.0,5.0,88,-99.99,,,-99.99,,2013-06-05 20:32:00,
2013-06-05 15:42:00,66.0,62.0,-100.00,NW,315,2.0,6.0,89,-99.99,,,-99.99,,2013-06-05 20:42:00,
2013-06-05 15:52:00,66.0,62.0,-100.00,NW,315,2.0,6.0,89,-99.99,,,-99.99,,2013-06-05 20:52:00,
2013-06-05 16:02:00,66.0,62.0,-100.00,North,0,1.0,4.0,89,-99.99,,,-99.99,,2013-06-05 21:02:00,
2013-06-05 16:12:00,66.0,63.0,-100.00,NE,40,1.0,4.0,90,-99.99,,,-99.99,,2013-06-05 21:12:00,
2013-06-05 16:22:00,66.0,63.0,-100.00,NE,40,1.0,4.0,90,-99.99,,,-99.99,,2013-06-05 21:22:00,
2013-06-05 16:33:00,67.0,63.0,-100.00,NNE,15,1.0,5.0,88,-99.99,,,-99.99,,2013-06-05 21:33:00,
2013-06-05 16:43:00,67.0,62.0,-100.00,NNE,15,1.0,4.0,84,-99.99,,,-99.99,,2013-06-05 21:43:00,
2013-06-05 16:53:00,67.0,62.0,-100.00,NNE,15,1.0,4.0,84,-99.99,,,-99.99,,2013-06-05 21:53:00,
2013-06-05 17:02:00,67.0,63.0,-100.00,NNE,20,1.0,4.0,88,-99.99,,,-99.99,,2013-06-05 22:02:00,
2013-06-05 17:12:00,67.0,63.0,-100.00,NNW,345,1.0,8.0,87,-99.99,,,-99.99,,2013-06-05 22:12:00,
2013-06-05 17:22:00,67.0,63.0,-100.00,NNW,345,1.0,8.0,87,-99.99,,,-99.99,,2013-06-05 22:22:00,
2013-06-05 17:32:00,68.0,63.0,-100.00,North,0,2.0,7.0,84,-99.99,,,-99.99,,2013-06-05 22:32:00,
2013-06-05 17:42:00,68.0,63.0,-100.00,North,5,0.0,6.0,85,-99.99,,,-99.99,,2013-06-05 22:42:00,
2013-06-05 17:53:00,68.0,63.0,-100.00,North,5,0.0,6.0,85,-99.99,,,-99.99,,2013-06-05 22:53:00,
2013-06-05 18:02:00,67.0,62.0,-100.00,NE,40,1.0,9.0,84,-99.99,,,-99.99,,2013-06-05 23:02:00,
2013-06-05 18:12:00,67.0,62.0,-100.00,North,0,1.0,5.0,85,-99.99,,,-99.99,,2013-06-05 23:12:00,
2013-06-05 18:22:00,67.0,62.0,-100.00,North,0,1.0,5.0,85,-99.99,,,-99.99,,2013-06-05 23:22:00,
2013-06-05 18:32:00,67.0,63.0,-100.00,NNE,15,1.0,4.0,86,-99.99,,,-99.99,,2013-06-05 23:32:00,
2013-06-05 18:42:00,67.0,62.0,-100.00,North,0,1.0,4.0,85,-99.99,,,-99.99,,2013-06-05 23:42:00,
2013-06-05 18:53:00,67.0,62.0,-100.00,North,0,1.0,4.0,85,-99.99,,,-99.99,,2013-06-05 23:53:00,
2013-06-05 19:02:00,67.0,63.0,-100.00,ENE,60,0.0,4.0,87,-99.99,,,-99.99,,2013-06-06 00:02:00,
2013-06-05 19:12:00,67.0,63.0,-100.00,ENE,60,0.0,4.0,87,-99.99,,,-99.99,,2013-06-06 00:12:00,
2013-06-05 19:22:00,66.0,63.0,-100.00,North,350,0.0,2.0,89,-99.99,,,-99.99,,2013-06-06 00:22:00,
2013-06-05 19:32:00,65.0,63.0,-100.00,NNE,15,0.0,4.0,93,-99.99,,,-99.99,,2013-06-06 00:32:00,
2013-06-05 19:42:00,65.0,64.0,-100.00,NNW,345,0.0,0.0,96,-99.99,,,-99.99,,2013-06-06 00:42:00,
2013-06-05 19:52:00,65.0,64.0,-100.00,NNW,345,0.0,0.0,96,-99.99,,,-99.99,,2013-06-06 00:52:00,
2013-06-05 20:02:00,64.0,64.0,-100.00,North,0,0.0,0.0,97,-99.99,,,-99.99,,2013-06-06 01:02:00,
2013-06-05 20:12:00,64.0,64.0,-100.00,East,100,1.0,2.0,97,-99.99,,,-99.99,,2013-06-06 01:12:00,
2013-06-05 20:22:00,64.0,64.0,-100.00,East,100,1.0,2.0,97,-99.99,,,-99.99,,2013-06-06 01:22:00,
2013-06-05 20:32:00,64.0,63.0,-100.00,North,10,0.0,4.0,97,-99.99,,,-99.99,,2013-06-06 01:32:00,
2013-06-05 20:42:00,64.0,63.0,-100.00,North,0,0.0,2.0,97,-99.99,,,-99.99,,2013-06-06 01:42:00,
2013-06-05 20:53:00,64.0,63.0,-100.00,North,0,0.0,2.0,97,-99.99,,,-99.99,,2013-06-06 01:53:00,
2013-06-05 21:02:00,63.0,63.0,-100.00,North,0,1.0,5.0,97,-99.99,,,-99.99,,2013-06-06 02:02:00,
2013-06-05 21:12:00,63.0,62.0,-100.00,North,0,1.0,4.0,97,-99.99,,,-99.99,,2013-06-06 02:12:00,
2013-06-05 21:22:00,63.0,62.0,-100.00,North,0,1.0,4.0,97,-99.99,,,-99.99,,2013-06-06 02:22:00,
2013-06-05 21:32:00,63.0,62.0,-100.00,North,0,0.0,5.0,97,-99.99,,,-99.99,,2013-06-06 02:32:00,
2013-06-05 21:42:00,63.0,62.0,-100.00,North,0,0.0,5.0,97,-99.99,,,-99.99,,2013-06-06 02:42:00,
2013-06-05 21:52:00,63.0,62.0,-100.00,North,0,0.0,5.0,97,-99.99,,,-99.99,,2013-06-06 02:52:00,
2013-06-05 22:02:00,63.0,62.0,-100.00,NNE,15,0.0,2.0,97,-99.99,,,-99.99,,2013-06-06 03:02:00,
2013-06-05 22:12:00,63.0,62.0,-100.00,North,5,0.0,4.0,97,-99.99,,,-99.99,,2013-06-06 03:12:00,
2013-06-05 22:22:00,63.0,62.0,-100.00,North,5,0.0,4.0,97,-99.99,,,-99.99,,2013-06-06 03:22:00,
2013-06-05 22:33:00,62.0,61.0,-100.00,ENE,70,1.0,6.0,96,-99.99,,,-99.99,,2013-06-06 03:33:00,
2013-06-05 22:43:00,62.0,61.0,-100.00,ENE,75,1.0,4.0,96,-99.99,,,-99.99,,2013-06-06 03:43:00,
2013-06-05 22:53:00,62.0,61.0,-100.00,ENE,75,1.0,4.0,96,-99.99,,,-99.99,,2013-06-06 03:53:00,
2013-06-05 23:03:00,62.0,61.0,-100.00,North,10,1.0,3.0,96,-99.99,,,-99.99,,2013-06-06 04:03:00,
2013-06-05 23:13:00,62.0,60.0,-100.00,East,90,1.0,4.0,95,-99.99,,,-99.99,,2013-06-06 04:13:00,
2013-06-05 23:23:00,62.0,60.0,-100.00,East,90,1.0,4.0,95,-99.99,,,-99.99,,2013-06-06 04:23:00,
2013-06-05 23:33:00,62.0,60.0,-100.00,East,85,1.0,4.0,94,-99.99,,,-99.99,,2013-06-06 04:33:00,
2013-06-05 23:42:00,62.0,60.0,-100.00,NE,45,1.0,3.0,94,-99.99,,,-99.99,,2013-06-06 04:42:00,
2013-06-05 23:53:00,62.0,60.0,-100.00,NE,45,1.0,3.0,94,-99.99,,,-99.99,,2013-06-06 04:53:00,